DELTA 1 DEB, 7028

Orbit data source: Space-Track

DELTA 1 DEB, 7028 is space debris in SSO originally from a launch on Tue, 06 Nov 1973 UTC launched from the Air Force Western Test Range (AFWTR). Debris objects in space refer to the collection of defunct objects orbiting the Earth. Examples of debris include non-operational satellites, rocket bodies, and fragments generated from explosions, collisions, or faulty payload assembly.

Loading next visibility...
Identifier
7028, 1973-086U
Orbit
SSO
Country
Flag of USUS
Related business
Manufacturer
Unknown
Mission
Spacecraft
Bus & Motor
Unknown
Mass
Unknown
Launch date (UTC)
1973-11-06 (53 years ago)
Launch vehicle
Unknown
Launch site
Air Force Western Test Range (AFWTR)
Object type
Payload
Rocket body
Debris
Shape & HBR
Unknown shape, 0.6 m
Radar Cross Section
Medium (>0.1 m² and <1 m²)

Expand to show TLE details & history
Last TLE update: 13 hours ago

TLE from 13 hours ago
0 DELTA 1 DEB
1 07028U 73086U   26264.28152007 -.00000020  00000-0  23942-3 0  9992
2 07028 102.6876 283.1820 0082053 311.4295 113.5562 12.24566064363119
Epoch: 2026-09-21T06:45Z
TLE epoch observation values (Epoch: 2026-09-21T06:45:23.334Z)
Latitude
62.97983°
Longitude
155.60995°
Altitude
1,609.84 km
Speed
7.059 km/s
True Right ascension
17h 08m 28s
True Declination
62° 51' 19"
Sunlit
Object was in daylight at epoch
Visualization orbit readout
Latitude
Unknown
Longitude
Unknown
Altitude
Unknown
Speed
Unknown
Apparent Right ascension
Unknown
Apparent Declination
Unknown
Sunlit
N/A
Visualization observer readout
Local Sidereal Time
12:52:32
Azimuth
Unknown
Elevation
Unknown
Doppler factor
Unknown
Orbital elements
Apogee altitude
1,635.572 km
Perigee altitude
1,505.132 km
Semi-major axis
7,948.489 km
Eccentricity
0.00821
Inclination
102.6876°
RAAN
283.182°
Arg. of periapsis
311.4295°
True anomaly
114.41455°
Mean anomaly
113.5562°
Eccentric anomaly
113.98573°
Mean motion
3.06278 °/min
Orbital period
117.54 mins
BSTAR
0.00023942
Loading maneuver chart data...
Computing Atmospheric mass density...
Loading historical data...
Loading historical data...
Loading historical data...
Loading historical data...
Loading historical data...
Loading historical data...
Loading historical data...

Documentation

Showing up to 5 results
|